OK1JIL-13 Weather Reports


time (UTC)temp
F
wind
direction
speed
knots
gust
knots
rain 1hr
in
rain 24hr
in
rain mn
in
humidity
%
barometer
mb
20260504185950 69 0.0 0.0 0.00 0.00 0.00 36 1015.0
20260504184950 68 0.0 0.0 0.00 0.00 0.00 36 1014.9
20260504183950 69 0.0 0.0 0.00 0.00 0.00 36 1014.9
20260504182950 69 0.0 0.0 0.00 0.00 0.00 36 1014.9
20260504181950 68 0.0 0.0 0.00 0.00 0.00 38 1015.0
20260504180951 67 0.0 0.0 0.00 0.00 0.00 39 1014.9
20260504175951 67 0.0 0.0 0.00 0.00 0.00 39 1014.9
20260504174950 68 0.0 0.0 0.00 0.00 0.00 39 1014.9
20260504173950 68 0.0 0.0 0.00 0.00 0.00 39 1014.9
20260504172950 68 0.0 0.0 0.00 0.00 0.00 39 1014.9
20260504171950 68 0.0 0.0 0.00 0.00 0.00 39 1014.8
20260504170950 69 0.0 0.0 0.00 0.00 0.00 39 1014.8
20260504150950 71 0.0 0.0 0.00 0.00 0.00 33 1015.1
20260504140949 73 0.0 0.0 0.00 0.00 0.00 31 1015.3
20260504081948 66 0.0 0.0 0.00 0.00 0.00 35 1016.4
20260504080948 60 0.0 0.0 0.00 0.00 0.00 43 1016.3
20260504045948 54 0.0 0.0 0.00 0.00 0.00 42 1015.8
20260504044948 54 0.0 0.0 0.00 0.00 0.00 44 1015.9
20260504043948 55 0.0 0.0 0.00 0.00 0.00 43 1015.8
20260504042948 55 0.0 0.0 0.00 0.00 0.00 43 1015.9
20260504041948 55 0.0 0.0 0.00 0.00 0.00 43 1015.9
20260504040948 54 0.0 0.0 0.00 0.00 0.00 42 1015.9
20260504035948 54 0.0 0.0 0.00 0.00 0.00 43 1015.8
20260504034948 54 0.0 0.0 0.00 0.00 0.00 42 1015.9
20260504033948 54 0.0 0.0 0.00 0.00 0.00 42 1015.8
20260504032948 54 0.0 0.0 0.00 0.00 0.00 42 1015.8
20260504031948 54 0.0 0.0 0.00 0.00 0.00 42 1015.8
20260504030948 54 0.0 0.0 0.00 0.00 0.00 42 1015.8
20260504025948 55 0.0 0.0 0.00 0.00 0.00 41 1015.9
20260504024948 55 0.0 0.0 0.00 0.00 0.00 40 1015.9
20260504023948 55 0.0 0.0 0.00 0.00 0.00 40 1015.9
20260504022948 54 0.0 0.0 0.00 0.00 0.00 41 1015.9
20260504021948 55 0.0 0.0 0.00 0.00 0.00 40 1015.9
20260504020948 56 0.0 0.0 0.00 0.00 0.00 39 1015.9
20260504015948 56 0.0 0.0 0.00 0.00 0.00 39 1015.9
20260504014948 54 0.0 0.0 0.00 0.00 0.00 42 1015.9
20260504013949 55 0.0 0.0 0.00 0.00 0.00 41 1015.9
20260504012948 55 0.0 0.0 0.00 0.00 0.00 41 1015.9
20260504011948 56 0.0 0.0 0.00 0.00 0.00 39 1015.9
20260504010948 57 0.0 0.0 0.00 0.00 0.00 38 1016.1
20260504005948 55 0.0 0.0 0.00 0.00 0.00 41 1015.9
20260504004948 57 0.0 0.0 0.00 0.00 0.00 38 1016.1
20260504003948 56 0.0 0.0 0.00 0.00 0.00 40 1016.1
20260504002948 56 0.0 0.0 0.00 0.00 0.00 41 1016.1
20260504001948 55 0.0 0.0 0.00 0.00 0.00 42 1016.0
20260504000950 57 0.0 0.0 0.00 0.00 0.00 39 1016.2
20260503235946 57 0.0 0.0 0.00 0.00 0.00 40 1016.3
20260503234946 56 0.0 0.0 0.00 0.00 0.00 41 1016.2
20260503233946 56 0.0 0.0 0.00 0.00 0.00 42 1016.3
20260503232946 56 0.0 0.0 0.00 0.00 0.00 42 1016.3
20260503231946 56 0.0 0.0 0.00 0.00 0.00 42 1016.5
20260503230946 56 0.0 0.0 0.00 0.00 0.00 42 1016.6
20260503225946 57 0.0 0.0 0.00 0.00 0.00 41 1016.6
20260503224946 57 0.0 0.0 0.00 0.00 0.00 41 1016.6
20260503223946 58 0.0 0.0 0.00 0.00 0.00 40 1016.7
20260503222946 58 0.0 0.0 0.00 0.00 0.00 40 1016.6
20260503221946 59 0.0 0.0 0.00 0.00 0.00 39 1016.7
20260503220946 59 0.0 0.0 0.00 0.00 0.00 38 1016.8
20260503215946 59 0.0 0.0 0.00 0.00 0.00 39 1016.8
20260503214946 60 0.0 0.0 0.00 0.00 0.00 37 1016.9
20260503213946 61 0.0 0.0 0.00 0.00 0.00 36 1016.8
20260503212946 62 0.0 0.0 0.00 0.00 0.00 35 1016.9
20260503211946 62 0.0 0.0 0.00 0.00 0.00 35 1016.9
20260503210946 62 0.0 0.0 0.00 0.00 0.00 34 1016.9
20260503205946 62 0.0 0.0 0.00 0.00 0.00 34 1016.9
20260503204946 63 0.0 0.0 0.00 0.00 0.00 34 1017.0
20260503203946 63 0.0 0.0 0.00 0.00 0.00 33 1017.0
20260503201946 64 0.0 0.0 0.00 0.00 0.00 32 1017.1
20260503200946 63 0.0 0.0 0.00 0.00 0.00 33 1017.1
20260503195946 62 0.0 0.0 0.00 0.00 0.00 34 1017.1
20260503194948 63 0.0 0.0 0.00 0.00 0.00 35 1017.2
20260503193946 63 0.0 0.0 0.00 0.00 0.00 35 1017.1
20260503192946 63 0.0 0.0 0.00 0.00 0.00 35 1017.0
20260503191946 64 0.0 0.0 0.00 0.00 0.00 34 1017.0
20260503190946 64 0.0 0.0 0.00 0.00 0.00 33 1017.0